(347394) = 2006 AS56 = 2012 SK1

Discovered at Mount Lemmon on 2006-01-07 by Mt. Lemmon Survey.

Orbit

Orbit type: Main Belt

Note: WebGL enabled browser required.

epoch2022-01-21.0
epoch JD2459600.5
perihelion date2020-07-07.61114
perihelion JD2459038.11114
argument of perihelion (°)229.51192
ascending node (°)137.30560
inclination (°)2.18095
eccentricity0.2064228
perihelion distance (AU)1.9472266
Tisserand w.r.t. Jupiter3.5
ΔV w.r.t. Earth (km/sec)8.8
semimajor axis (AU)2.4537331
mean anomaly (°)144.21139
mean daily motion (°/day)0.25642650
aphelion distance (AU)2.960
period (years)3.84
P-vector [x]0.99255569
P-vector [y]0.12005338
P-vector [z]0.02050354
Q-vector [x]-0.11902650
Q-vector [y]0.92050635
Q-vector [z]0.37215689
absolute magnitude17.66
phase slope0.15
uncertainty0
referenceMPO 698044
observations used327
oppositions11
arc length (days)5892
first opposition used2006
last opposition used2022
residual rms (arc-secs)0.77
perturbers coarse indicatorM-v
perturbers precise indicator003Ek
first observation date used2006-01-07.0
last observation date used2022-02-24.0
computer namePan
JD of orbit computation2456731.565623
perihelion JD uncertainty (days)1.7835E-04
argument of perihelion uncertainty (°)2.3323E-04
ascending node uncertainty (°)2.2378E-04
inclination uncertainty (°)1.4661E-05
eccentricity uncertainty 1.4768E-07
perihelion distance uncertainty (AU)3.4760E-07
Minimum Orbit Intersection Distances (in AU)
for orbit epoch: 2458200.5, reference: MPO434188
Mercury1.58366
Venus1.21661
Earth0.940463
Mars0.536103
Jupiter2.49084
Saturn6.45449
Uranus15.2427
Neptune27.2585

Observations

343 total observations over interval: 2006 01 07.29199 – 2022 02 24.456582
These data are available for download (format description).

Date (UT) J2000 RA J2000 Dec Magn Location Ref
2006 01 07.29199 07 49 57.50 +19 28 52.5 21.3 V G96 – Mt. Lemmon Survey MPS 159284
2006 01 07.30089 07 49 56.89 +19 28 55.1 20.9 V G96 – Mt. Lemmon Survey MPS 159284
2006 01 07.30979 07 49 56.35 +19 28 57.0 21.3 V G96 – Mt. Lemmon Survey MPS 159284
2006 01 07.31873 07 49 55.77 +19 28 58.9 20.9 V G96 – Mt. Lemmon Survey MPS 159284
2006 01 09.31479 07 47 46.58 +19 36 11.2 21.4 V 691 – Steward Observatory, Kitt Peak-Spacewatch MPS 159284
2006 01 09.33207 07 47 45.42 +19 36 15.0 21.3 V 691 – Steward Observatory, Kitt Peak-Spacewatch MPS 159284
2006 01 09.34934 07 47 44.26 +19 36 18.4 21.3 V 691 – Steward Observatory, Kitt Peak-Spacewatch MPS 159284
2007 04 22.27885 13 06 27.50 -03 52 34.2 22.5 V G96 – Mt. Lemmon Survey MPS 432060
2007 04 22.28578 13 06 27.14 -03 52 31.9 21.2 V G96 – Mt. Lemmon Survey MPS 432060
2007 04 22.29277 13 06 26.78 -03 52 29.4 21.4 V G96 – Mt. Lemmon Survey MPS 432060
2007 04 22.29969 13 06 26.42 -03 52 27.5 21.5 V G96 – Mt. Lemmon Survey MPS 432060
2008 06 30.38173 21 17 07.88 -14 39 06.0   691 – Steward Observatory, Kitt Peak-Spacewatch MPS 432060
2008 06 30.40279 21 17 07.59 -14 39 08.1   691 – Steward Observatory, Kitt Peak-Spacewatch MPS 432060
2008 06 30.41786 21 17 07.38 -14 39 09.4   691 – Steward Observatory, Kitt Peak-Spacewatch MPS 432060
2008 07 30.29683 21 00 06.22 -16 29 12.6 19.8 V G96 – Mt. Lemmon Survey MPS 432060
2008 07 30.30132 21 00 06.01 -16 29 13.8 19.8 V G96 – Mt. Lemmon Survey MPS 432060
2008 07 30.30576 21 00 05.76 -16 29 15.1 19.9 V G96 – Mt. Lemmon Survey MPS 432060
2008 07 30.31030 21 00 05.50 -16 29 16.7 19.8 V G96 – Mt. Lemmon Survey MPS 432060
2008 09 06.15403 20 32 39.55 -19 14 36.7 20.1 V G96 – Mt. Lemmon Survey MPS 432060
2008 09 06.15970 20 32 39.44 -19 14 37.9 19.0 V G96 – Mt. Lemmon Survey MPS 432060
2008 09 06.16527 20 32 39.37 -19 14 38.6 20.4 V G96 – Mt. Lemmon Survey MPS 432060
2008 09 06.17086 20 32 39.15 -19 14 38.9 19.5 V G96 – Mt. Lemmon Survey MPS 432060
2008 09 25.12914 20 33 50.94 -19 32 59.6 21.2 V G96 – Mt. Lemmon Survey MPS 432060
2008 09 25.13594 20 33 51.04 -19 32 59.8 21.3 V G96 – Mt. Lemmon Survey MPS 432060
2008 09 25.14256 20 33 51.19 -19 32 59.2 20.9 V G96 – Mt. Lemmon Survey MPS 432060
2008 09 25.14918 20 33 51.37 -19 32 58.7 21.4 V G96 – Mt. Lemmon Survey MPS 432060
2010 02 16.19897 08 36 14.90 +18 24 25.3 21.9 V G96 – Mt. Lemmon Survey MPS 432060
2010 02 16.20485 08 36 14.68 +18 24 26.1 21.6 V G96 – Mt. Lemmon Survey MPS 432060
2010 02 16.21072 08 36 14.47 +18 24 27.4 21.7 V G96 – Mt. Lemmon Survey MPS 432060
2010 02 16.21663 08 36 14.07 +18 24 29.5 21.5 V G96 – Mt. Lemmon Survey MPS 432060
2012 08 25.35635 23 19 55.34 -06 09 30.1 19.6 V 703 – Catalina Sky Survey MPS 432060
2012 08 25.36237 23 19 55.05 -06 09 32.1 19.6 V 703 – Catalina Sky Survey MPS 432060
2012 08 25.36846 23 19 54.84 -06 09 35.3 20.3 V 703 – Catalina Sky Survey MPS 432060
2012 08 25.37456 23 19 54.55 -06 09 38.7 19.4 V 703 – Catalina Sky Survey MPS 432060
2012 08 26.20771 23 19 23.84 -06 14 39.4 19.9 V 691 – Steward Observatory, Kitt Peak-Spacewatch MPS 432060
2012 08 26.22544 23 19 23.16 -06 14 46.3 19.9 V 691 – Steward Observatory, Kitt Peak-Spacewatch MPS 432060
2012 08 26.24318 23 19 22.41 -06 14 52.6 19.8 V 691 – Steward Observatory, Kitt Peak-Spacewatch MPS 432060
2012 09 11.24646 23 07 38.82 -07 59 09.3 19.1 R H15 – ISON-NM Observatory, Mayhill MPS 432060
2012 09 11.26186 23 07 38.07 -07 59 15.9 19.3 R H15 – ISON-NM Observatory, Mayhill MPS 432060
2012 09 11.27714 23 07 37.29 -07 59 22.2 19.1 R H15 – ISON-NM Observatory, Mayhill MPS 432060
2012 09 11.29445 23 07 36.48 -07 59 28.3 19.1 R H15 – ISON-NM Observatory, Mayhill MPS 432060
2012 09 12.54792 23 06 38.34 -08 07 22.4 19.0 V E12 – Siding Spring Survey MPS 432060
2012 09 12.57339 23 06 37.11 -08 07 33.2 19.8 V E12 – Siding Spring Survey MPS 432060
2012 09 12.58610 23 06 36.43 -08 07 36.6 19.4 V E12 – Siding Spring Survey MPS 432060
2012 09 16.33818 23 03 45.50 -08 31 09.3 19.5 V G96 – Mt. Lemmon Survey MPS 432060
2012 09 16.34345 23 03 45.25 -08 31 11.2 19.6 V G96 – Mt. Lemmon Survey MPS 432060
2012 09 16.34866 23 03 45.00 -08 31 13.1 19.4 V G96 – Mt. Lemmon Survey MPS 432060
2012 09 16.35387 23 03 44.74 -08 31 15.0 19.4 V G96 – Mt. Lemmon Survey MPS 432060
2012 09 17.24446 23 03 05.65 -08 36 35.1 19.4 V G96 – Mt. Lemmon Survey MPS 432060
2012 09 17.25377 23 03 05.22 -08 36 38.5 19.3 V G96 – Mt. Lemmon Survey MPS 432060
2012 09 17.26309 23 03 04.78 -08 36 41.7 19.3 V G96 – Mt. Lemmon Survey MPS 432060
2012 09 17.27238 23 03 04.35 -08 36 45.1 19.1 V G96 – Mt. Lemmon Survey MPS 432060
2012 09 19.22175 23 01 40.40 -08 48 00.6 19.7 V 703 – Catalina Sky Survey MPS 432060
2012 09 19.22880 23 01 40.00 -08 48 03.6 19.5 V 703 – Catalina Sky Survey MPS 432060
2012 09 19.23586 23 01 39.61 -08 48 05.5 19.3 V 703 – Catalina Sky Survey MPS 432060
2012 09 19.24293 23 01 39.36 -08 48 08.8 19.7 V 703 – Catalina Sky Survey MPS 432060
2012 10 08.14046 22 52 13.80 -10 02 04.8 19.2 R 926 – Tenagra II Observatory, Nogales MPS 434233
2012 10 08.15429 22 52 13.53 -10 02 06.7 19.2 R 926 – Tenagra II Observatory, Nogales MPS 434233
2012 10 08.16824 22 52 13.25 -10 02 09.1 18.8 R 926 – Tenagra II Observatory, Nogales MPS 434233
2012 11 01.313310 22 56 01.340 -09 40 08.86 20.4 r F51 – Pan-STARRS 1, Haleakala MPS 439711
2012 11 01.325205 22 56 01.703 -09 40 06.42 20.1 r F51 – Pan-STARRS 1, Haleakala MPS 439711
2012 11 01.338698 22 56 02.107 -09 40 03.47 20.1 i F51 – Pan-STARRS 1, Haleakala MPS 439711
2012 11 01.351512 22 56 02.502 -09 40 00.93 20.2 i F51 – Pan-STARRS 1, Haleakala MPS 439711
2012 11 05.21843 22 58 22.26 -09 24 41.7 20.4 V G96 – Mt. Lemmon Survey MPS 439711
2012 11 05.22409 22 58 22.44 -09 24 39.7 20.2 V G96 – Mt. Lemmon Survey MPS 439711
2012 11 05.22979 22 58 22.62 -09 24 38.7 20.5 V G96 – Mt. Lemmon Survey MPS 439711
2012 11 05.23553 22 58 22.87 -09 24 37.7 20.7 V G96 – Mt. Lemmon Survey MPS 439711
2014 02 27.27370 09 39 11.08 +14 40 30.3 21.4 V G96 – Mt. Lemmon Survey MPS 503928
2014 02 27.27880 09 39 10.79 +14 40 31.4 20.7 V G96 – Mt. Lemmon Survey MPS 503928
2014 02 27.28389 09 39 10.48 +14 40 33.0 21.3 V G96 – Mt. Lemmon Survey MPS 503928
2014 02 27.28901 09 39 10.23 +14 40 35.0 22.3 V G96 – Mt. Lemmon Survey MPS 503928
2016 08 12.52723 01 41 49.373 +08 17 13.82 20.7 w F51 – Pan-STARRS 1, Haleakala MPS 724887
2016 08 12.53826 01 41 49.940 +08 17 15.87 20.5 w F51 – Pan-STARRS 1, Haleakala MPS 724887
2016 08 12.54936 01 41 50.517 +08 17 17.85 20.5 w F51 – Pan-STARRS 1, Haleakala MPS 724887
2016 08 12.56047 01 41 51.088 +08 17 19.96 20.6 w F51 – Pan-STARRS 1, Haleakala MPS 724887
2016 09 11.77697 01 55 43.01 +08 28 01.4 20.4 R D29 – Purple Mountain Observatory, XuYi Station MPS 729771
2016 09 11.79111 01 55 42.82 +08 27 59.8 20.4 R D29 – Purple Mountain Observatory, XuYi Station MPS 729771
2016 09 11.80525 01 55 42.79 +08 27 57.1 20.2 R D29 – Purple Mountain Observatory, XuYi Station MPS 729771
2016 09 12.40641 01 55 41.24 +08 26 27.2 19.6 V G96 – Mt. Lemmon Survey MPS 729771
2016 09 12.41656 01 55 41.17 +08 26 25.0 19.6 V G96 – Mt. Lemmon Survey MPS 729771
2016 09 12.43843 01 55 41.04 +08 26 21.9 19.5 V G96 – Mt. Lemmon Survey MPS 729771
2016 09 12.44388 01 55 40.97 +08 26 21.2 19.6 V G96 – Mt. Lemmon Survey MPS 729771
2016 09 25.47733 01 52 06.07 +07 38 38.6 19.5 V G96 – Mt. Lemmon Survey MPS 732149
2016 09 25.48165 01 52 05.95 +07 38 37.5 19.6 V G96 – Mt. Lemmon Survey MPS 732149
2016 09 25.48593 01 52 05.82 +07 38 36.0 19.6 V G96 – Mt. Lemmon Survey MPS 732149
2016 09 25.49027 01 52 05.66 +07 38 35.0 19.6 V G96 – Mt. Lemmon Survey MPS 732149
2016 09 29.06614 01 50 11.65 +07 21 13.0 19.5   J43 – Oukaimeden Observatory, Marrakech MPS 732149
2016 09 29.07473 01 50 11.30 +07 21 10.1 19.5   J43 – Oukaimeden Observatory, Marrakech MPS 732149
2016 09 29.08330 01 50 10.98 +07 21 07.9 19.5   J43 – Oukaimeden Observatory, Marrakech MPS 732149
2016 09 29.09188 01 50 10.66 +07 21 05.2 19.2   J43 – Oukaimeden Observatory, Marrakech MPS 732149
2016 09 29.12257 01 50 09.54 +07 20 56.9 19.5 R Z22 – MASTER-IAC Observatory, Tenerife MPS 732149
2016 09 29.13308 01 50 09.15 +07 20 53.1 19.7 R Z22 – MASTER-IAC Observatory, Tenerife MPS 732149
